period_start,C,m1,H,J0,J1,J2,J3,J4,J5,JA,JB,JC,JD,JJ,JK,JN,#
2017-06-21 07:51:07,0.00,0.00,0.00,18.30,16.97,16.65,12.04,37.31,1002.47,1869.97,3311.14,2843.36,3265.58,532.78,531.59,0.01,0000 0000 0000 0000 000000
2017-06-21 07:56:08,0.00,0.00,0.00,18.42,17.02,18.52,13.66,42.15,1002.93,2075.77,3669.97,3153.06,3622.26,600.32,597.67,0.06,0000 0000 0000 0000 000000
2017-06-21 08:01:09,0.01,0.00,0.00,18.55,17.09,19.49,13.62,42.42,1003.09,2075.06,3667.18,3151.00,3619.97,599.92,597.03,0.11,0000 0000 0000 0000 000000
2017-06-21 08:06:11,0.03,0.01,0.00,18.71,17.19,20.03,13.66,42.64,1003.42,2074.98,3665.38,3149.64,3618.44,600.11,596.96,0.16,0000 0000 0000 0000 000000
2017-06-21 08:11:12,0.03,0.01,0.00,18.84,17.33,20.41,13.75,42.67,1003.45,2074.38,3663.57,3148.25,3616.82,600.09,596.79,0.21,0000 0000 0000 0000 000000
2017-06-21 08:16:13,0.05,0.01,0.00,18.96,17.49,20.72,13.70,42.86,1003.55,2073.95,3661.76,3146.81,3615.15,600.03,596.44,0.26,0000 0000 0000 0000 000000
2017-06-21 08:21:15,0.01,0.01,0.00,19.16,17.69,21.07,13.73,42.77,1003.53,2073.16,3660.07,3145.38,3613.32,600.35,596.45,0.31,0000 0000 0000 0000 000000
2017-06-21 08:26:16,-0.01,0.01,0.00,19.41,17.91,21.47,13.73,42.92,1003.82,2072.43,3658.41,3144.06,3611.70,599.96,595.73,0.36,0000 0000 0000 0000 000000
2017-06-21 08:31:17,0.03,0.01,0.00,19.67,18.15,21.84,13.63,42.87,1003.90,2071.74,3656.91,3142.76,3610.21,599.77,594.91,0.41,0000 0000 0000 0000 000000
2017-06-21 08:36:18,0.04,0.02,0.00,19.93,18.41,22.24,13.55,43.00,1003.88,2070.84,3654.77,3141.00,3608.10,599.34,594.17,0.46,0000 0000 0000 0000 000000
2017-06-21 08:41:19,0.03,0.02,0.00,20.22,18.69,22.64,13.65,42.92,1003.92,2069.85,3652.46,3139.08,3605.82,600.27,594.31,0.51,0000 0000 0000 0000 000000
2017-06-21 08:46:21,0.04,0.02,0.00,20.52,18.98,23.02,13.61,42.90,1003.96,2068.86,3650.28,3137.15,3603.50,599.80,593.50,0.56,0000 0000 0000 0000 000000
2017-06-21 08:51:22,0.03,0.02,0.00,20.81,19.28,23.41,13.68,42.95,1004.07,2067.90,3647.87,3135.17,3601.13,600.24,593.24,0.61,0000 0000 0000 0000 000000
2017-06-21 08:56:23,-0.01,0.02,0.00,21.08,19.59,23.80,13.62,42.81,1003.97,2066.81,3645.63,3133.26,3598.60,600.12,592.65,0.66,0000 0000 0000 0000 000000
2017-06-21 09:01:25,-0.00,0.02,0.00,21.33,19.91,24.17,13.63,42.88,1004.20,2065.59,3643.51,3131.24,3596.19,600.30,592.47,0.71,0000 0000 0000 0000 000000
2017-06-21 09:06:26,0.02,0.02,0.00,21.57,20.22,24.53,13.63,42.78,1004.37,2064.45,3641.25,3129.22,3593.78,600.12,591.88,0.76,0000 0000 0000 0000 000000
2017-06-21 09:11:27,0.04,0.02,0.00,21.78,20.54,24.89,13.66,42.72,1004.41,2063.29,3638.73,3127.11,3591.22,600.20,591.55,0.81,0000 0000 0000 0000 000000
2017-06-21 09:16:29,0.03,0.03,0.00,21.99,20.85,25.21,13.56,42.88,1004.41,2062.13,3636.26,3124.92,3588.67,599.72,590.64,0.86,0000 0000 0000 0000 000000
2017-06-21 09:21:30,0.01,0.03,0.00,22.17,21.17,25.54,13.59,42.75,1004.41,2060.83,3633.81,3122.80,3586.04,599.79,590.30,0.91,0000 0000 0000 0000 000000
2017-06-21 09:26:31,-0.00,0.03,0.00,22.33,21.48,25.83,13.63,42.67,1004.41,2059.64,3631.43,3120.69,3583.60,599.87,590.04,0.96,0000 0000 0000 0000 000000
2017-06-21 09:31:32,0.02,0.03,0.00,22.50,21.78,26.11,13.62,42.79,1004.34,2058.42,3629.10,3118.68,3581.28,600.00,589.81,1.01,0000 0000 0000 0000 000000
2017-06-21 09:36:34,0.02,0.03,0.00,22.64,22.08,26.38,13.65,42.73,1004.21,2057.23,3626.87,3116.66,3578.86,599.98,589.40,1.06,0000 0000 0000 0000 000000
2017-06-21 09:41:35,0.02,0.03,0.00,22.78,22.37,26.64,13.65,42.68,1004.04,2056.06,3624.36,3114.56,3576.39,600.07,589.29,1.11,0000 0000 0000 0000 000000
2017-06-21 09:46:37,0.01,0.03,0.00,22.89,22.65,26.88,13.61,42.55,1004.02,2054.89,3622.13,3112.60,3573.98,600.09,588.95,1.16,0000 0000 0000 0000 000000
2017-06-21 09:51:38,-0.01,0.03,0.00,23.00,22.93,27.11,13.57,42.67,1004.01,2053.70,3619.89,3110.63,3571.57,599.76,588.35,1.21,0000 0000 0000 0000 000000
2017-06-21 09:56:39,0.02,0.03,0.00,23.10,23.20,27.33,13.64,42.58,1003.99,2052.60,3617.53,3108.65,3569.19,600.22,588.63,1.26,0000 0000 0000 0000 000000
2017-06-21 10:01:40,0.02,0.03,0.00,23.21,23.46,27.54,13.51,42.52,1003.98,2051.57,3615.27,3106.79,3566.90,600.02,588.20,1.31,0000 0000 0000 0000 000000
2017-06-21 10:06:41,0.01,0.03,0.00,23.30,23.70,27.76,13.63,42.61,1003.99,2050.49,3613.12,3104.87,3564.64,600.35,588.40,1.36,0000 0000 0000 0000 000000
2017-06-21 10:11:43,0.03,0.03,0.00,23.39,23.95,27.98,13.60,42.48,1003.95,2049.41,3610.77,3102.67,3562.11,599.98,587.96,1.41,0000 0000 0000 0000 000000
2017-06-21 10:16:44,0.02,0.04,0.00,23.47,24.18,28.16,13.66,42.43,1003.94,2048.42,3608.67,3100.81,3559.88,600.04,587.69,1.46,0000 0000 0000 0000 000000
2017-06-21 10:21:45,0.01,0.04,0.00,23.55,24.41,28.30,13.55,42.40,1003.92,2047.33,3606.59,3099.07,3557.80,599.85,587.39,1.51,0000 0000 0000 0000 000000
2017-06-21 10:26:47,0.04,0.04,0.00,23.62,24.63,28.35,13.60,42.42,1003.92,2046.66,3604.50,3097.36,3555.64,600.00,587.36,1.56,0000 0000 0000 0000 000000
2017-06-21 10:31:48,0.02,0.04,0.00,23.69,24.84,28.34,13.55,42.41,1003.92,2045.74,3602.55,3095.65,3553.59,599.73,586.86,1.61,0000 0000 0000 0000 000000
2017-06-21 10:36:49,0.04,0.04,0.00,23.76,25.03,28.42,13.57,42.38,1003.92,2044.92,3600.58,3093.99,3551.69,599.96,587.04,1.66,0000 0000 0000 0000 000000
2017-06-21 10:41:51,0.02,0.04,0.00,23.81,25.22,28.49,13.54,42.32,1003.92,2044.06,3598.70,3092.48,3549.76,599.69,586.71,1.71,0000 0000 0000 0000 000000
2017-06-21 10:46:52,0.00,0.04,0.00,23.87,25.41,28.57,13.57,42.30,1003.91,2043.31,3596.90,3090.97,3547.93,599.98,586.84,1.76,0000 0000 0000 0000 000000
2017-06-21 10:51:54,0.00,0.04,0.00,23.92,25.59,28.66,13.59,42.57,1003.78,2042.37,3595.24,3089.59,3546.22,599.97,586.62,1.81,0000 0000 0000 0000 000000
2017-06-21 10:56:55,0.02,0.04,0.00,23.97,25.76,28.77,13.58,42.53,1003.56,2041.63,3593.35,3088.09,3544.38,599.86,586.32,1.86,0000 0000 0000 0000 000000
2017-06-21 11:01:56,0.04,0.04,0.00,24.03,25.92,28.91,13.59,42.44,1003.75,2040.89,3591.74,3086.74,3542.70,599.66,586.04,1.91,0000 0000 0000 0000 000000
2017-06-21 11:06:57,0.00,0.04,0.00,24.06,26.08,29.05,13.60,42.44,1003.65,2040.06,3590.16,3085.47,3541.07,600.06,586.42,1.96,0000 0000 0000 0000 000000
2017-06-21 11:11:58,-0.00,0.05,0.00,24.11,26.23,29.17,13.60,42.47,1003.48,2039.44,3588.58,3084.20,3539.57,600.09,586.26,2.01,0000 0000 0000 0000 000000
2017-06-21 11:16:59,0.05,0.05,0.00,24.14,26.37,29.31,13.55,42.39,1003.45,2038.81,3586.87,3082.85,3537.91,600.08,586.02,2.06,0000 0000 0000 0000 000000
2017-06-21 11:22:01,0.01,0.05,0.00,24.18,26.51,29.43,13.61,42.42,1003.46,2038.04,3585.30,3081.68,3536.45,600.19,586.09,2.11,0000 0000 0000 0000 000000
2017-06-21 11:27:02,-0.00,0.05,0.00,24.22,26.63,29.55,13.60,42.55,1003.45,2037.47,3583.79,3080.56,3535.01,600.16,586.09,2.16,0000 0000 0000 0000 000000
2017-06-21 11:32:03,0.05,0.05,0.00,24.27,26.76,29.64,13.59,42.51,1003.43,2036.99,3582.49,3079.40,3533.57,599.71,585.52,2.21,0000 0000 0000 0000 000000
2017-06-21 11:37:05,-0.01,0.05,0.00,24.33,26.88,29.72,13.58,42.43,1003.43,2036.33,3581.03,3078.36,3532.22,600.06,585.74,2.26,0000 0000 0000 0000 000000
2017-06-21 11:42:06,0.06,0.05,0.00,24.42,27.00,29.83,13.61,42.38,1003.40,2035.99,3579.48,3077.18,3530.77,599.75,585.16,2.32,0000 0000 0000 0000 000000
2017-06-21 11:47:07,-0.01,0.05,0.00,24.50,27.12,29.91,13.60,42.32,1003.33,2035.33,3577.75,3076.00,3529.31,599.95,585.21,2.37,0000 0000 0000 0000 000000
2017-06-21 11:52:09,0.07,0.06,0.00,24.59,27.23,30.01,13.53,42.21,1003.04,2035.00,3576.18,3074.80,3527.85,599.74,584.61,2.42,0000 0000 0000 0000 000000
2017-06-21 11:57:10,-0.00,0.06,0.00,24.67,27.34,30.10,13.60,42.38,1002.96,2034.38,3574.64,3073.72,3526.47,600.27,585.00,2.47,0000 0000 0000 0000 000000
2017-06-21 12:02:12,0.05,0.06,0.00,24.72,27.44,30.20,13.56,42.38,1002.95,2033.99,3573.10,3072.64,3525.04,600.13,584.77,2.52,0000 0000 0000 0000 000000
2017-06-21 12:07:13,0.00,0.06,0.00,24.74,27.55,30.29,13.59,42.32,1002.93,2033.47,3571.72,3071.66,3523.72,600.16,584.73,2.57,0000 0000 0000 0000 000000
2017-06-21 12:12:14,0.03,0.06,0.00,24.75,27.64,30.38,13.60,42.40,1002.72,2033.02,3570.38,3070.78,3522.54,600.09,584.52,2.62,0000 0000 0000 0000 000000
2017-06-21 12:17:15,0.04,0.06,0.00,24.77,27.74,30.48,13.56,42.34,1002.49,2032.86,3568.93,3069.86,3521.27,600.22,584.36,2.67,0000 0000 0000 0000 000000
2017-06-21 12:22:17,-0.01,0.06,0.00,24.77,27.83,30.56,13.58,42.38,1002.47,2032.10,3567.75,3068.97,3520.15,599.69,583.99,2.72,0000 0000 0000 0000 000000
2017-06-21 12:27:18,0.05,0.07,0.00,24.80,27.91,30.62,13.56,42.39,1002.47,2031.99,3566.39,3068.06,3519.11,599.81,584.01,2.77,0000 0000 0000 0000 000000
2017-06-21 12:32:19,0.00,0.07,0.00,24.82,27.99,30.68,13.54,42.48,1002.46,2031.68,3565.15,3067.19,3517.99,599.89,584.03,2.82,0000 0000 0000 0000 000000
2017-06-21 12:37:20,0.02,0.07,0.00,24.85,28.07,30.74,13.52,42.27,1002.46,2031.02,3563.85,3066.26,3516.87,599.83,583.84,2.87,0000 0000 0000 0000 000000
2017-06-21 12:42:21,0.04,0.07,0.00,24.87,28.15,30.80,13.56,42.24,1002.46,2030.98,3562.74,3065.64,3515.89,600.01,584.05,2.92,0000 0000 0000 0000 000000
2017-06-21 12:47:23,-0.02,0.07,0.00,24.90,28.21,30.87,13.51,42.14,1002.46,2030.42,3561.55,3064.88,3514.88,600.15,584.10,2.97,0000 0000 0000 0000 000000
2017-06-21 12:52:24,0.03,0.07,0.00,24.93,28.28,30.92,13.60,42.22,1002.46,2030.03,3560.42,3064.06,3513.91,600.29,584.24,3.02,0000 0000 0000 0000 000000
2017-06-21 12:57:25,0.04,0.07,0.00,24.99,28.34,30.98,13.59,42.24,1002.46,2030.00,3559.38,3063.38,3512.99,600.32,583.90,3.07,0000 0000 0000 0000 000000
2017-06-21 13:02:26,0.02,0.07,0.00,24.97,28.40,31.03,13.50,42.20,1002.48,2029.89,3558.28,3062.80,3512.08,599.82,583.69,3.12,0000 0000 0000 0000 000000
2017-06-21 13:07:28,-0.02,0.07,0.00,24.88,28.45,31.08,13.61,42.07,1002.46,2029.32,3557.41,3062.05,3511.22,599.95,583.93,3.17,0000 0000 0000 0000 000000
2017-06-21 13:12:29,0.04,0.07,0.00,24.78,28.49,31.16,13.56,42.03,1002.46,2029.01,3556.40,3061.54,3510.43,600.18,584.36,3.22,0000 0000 0000 0000 000000
2017-06-21 13:17:30,0.03,0.08,0.00,24.73,28.53,31.22,13.62,41.97,1002.46,2029.00,3555.36,3061.00,3509.65,600.26,584.57,3.27,0000 0000 0000 0000 000000
2017-06-21 13:22:31,0.03,0.08,0.00,24.68,28.56,31.24,13.57,42.03,1002.38,2028.98,3554.51,3060.47,3508.99,599.67,584.04,3.32,0000 0000 0000 0000 000000
2017-06-21 13:27:33,0.03,0.08,0.00,24.65,28.57,31.26,13.59,41.93,1002.10,2028.96,3553.65,3060.02,3508.20,599.98,584.26,3.37,0000 0000 0000 0000 000000
2017-06-21 13:32:34,0.01,0.08,0.00,24.62,28.59,31.23,13.62,41.92,1001.99,2028.92,3552.89,3059.82,3507.79,599.77,584.10,3.42,0000 0000 0000 0000 000000
2017-06-21 13:37:35,0.04,0.08,0.00,24.60,28.60,31.22,13.64,41.82,1001.98,2028.95,3552.12,3059.28,3507.09,599.95,584.24,3.47,0000 0000 0000 0000 000000
2017-06-21 13:42:37,0.01,0.08,0.00,24.57,28.60,31.20,13.66,41.82,1001.98,2028.94,3551.61,3059.01,3506.89,600.07,584.43,3.52,0000 0000 0000 0000 000000
2017-06-21 13:47:38,0.01,0.08,0.00,24.53,28.60,31.16,13.65,41.66,1001.98,2028.89,3550.84,3058.96,3506.11,600.34,584.78,3.57,0000 0000 0000 0000 000000
2017-06-21 13:52:39,0.02,0.09,0.00,24.55,28.58,31.13,13.63,41.84,1001.97,2028.84,3550.05,3058.40,3505.97,600.21,584.59,3.62,0000 0000 0000 0000 000000
2017-06-21 13:57:41,0.02,0.09,0.00,24.61,28.57,31.08,13.62,41.87,1001.97,2028.90,3549.67,3058.04,3505.40,599.75,583.99,3.67,0000 0000 0000 0000 000000
2017-06-21 14:02:41,0.01,0.09,0.00,24.69,28.57,31.08,13.61,41.93,1001.97,2028.95,3549.02,3057.99,3505.01,599.93,584.04,3.72,0000 0000 0000 0000 000000
2017-06-21 14:07:43,0.02,0.09,0.00,24.71,28.57,31.03,13.57,41.95,1001.97,2028.87,3548.40,3057.89,3504.66,600.29,584.37,3.77,0000 0000 0000 0000 000000
2017-06-21 14:12:43,0.02,0.09,0.00,24.78,28.58,31.00,13.60,41.92,1001.97,2028.75,3547.76,3057.19,3504.03,599.86,583.86,3.82,0000 0000 0000 0000 000000
2017-06-21 14:17:45,0.01,0.09,0.00,24.86,28.60,31.00,13.51,42.09,1001.96,2028.62,3547.02,3057.00,3503.71,599.88,583.62,3.87,0000 0000 0000 0000 000000
2017-06-21 14:22:46,-0.01,0.09,0.00,24.93,28.61,30.99,13.54,42.12,1001.97,2028.25,3546.19,3056.74,3503.01,599.76,583.38,3.92,0000 0000 0000 0000 000000
2017-06-21 14:27:47,0.03,0.09,0.00,24.91,28.63,31.03,13.58,42.09,1001.97,2028.07,3545.41,3056.04,3502.24,600.14,583.86,3.97,0000 0000 0000 0000 000000
2017-06-21 14:32:49,0.01,0.09,0.00,24.84,28.65,31.07,13.58,42.05,1001.97,2028.02,3544.64,3055.98,3501.84,599.97,583.75,4.02,0000 0000 0000 0000 000000
2017-06-21 14:37:50,0.05,0.09,0.00,24.80,28.66,31.13,13.59,42.17,1001.98,2028.01,3543.66,3055.35,3501.01,600.06,583.83,4.07,0000 0000 0000 0000 000000
2017-06-21 14:42:51,0.02,0.10,0.00,24.79,28.67,31.17,13.55,42.07,1002.18,2028.02,3543.01,3054.98,3500.29,599.63,583.68,4.12,0000 0000 0000 0000 000000
2017-06-21 14:47:52,0.03,0.10,0.00,24.77,28.69,31.19,13.65,42.06,1002.44,2028.00,3542.23,3054.42,3499.98,600.15,584.41,4.17,0000 0000 0000 0000 000000
2017-06-21 14:52:54,0.02,0.10,0.00,24.77,28.70,31.22,13.58,42.12,1002.46,2028.00,3541.54,3054.01,3499.28,599.82,584.04,4.22,0000 0000 0000 0000 000000
2017-06-21 14:57:55,0.00,0.10,0.00,24.75,28.70,31.23,13.58,42.09,1002.46,2028.00,3540.92,3053.98,3498.98,599.94,584.24,4.27,0000 0000 0000 0000 000000
2017-06-21 15:02:56,0.03,0.10,0.00,24.77,28.70,31.22,13.67,42.09,1002.47,2028.00,3540.13,3053.75,3498.46,600.14,584.20,4.32,0000 0000 0000 0000 000000
2017-06-21 15:07:57,0.02,0.10,0.00,24.77,28.70,31.20,13.61,42.08,1002.47,2028.00,3539.64,3053.11,3498.00,599.93,584.17,4.37,0000 0000 0000 0000 000000
2017-06-21 15:12:58,0.01,0.10,0.00,24.76,28.70,31.19,13.52,42.03,1002.49,2028.00,3539.00,3053.00,3497.70,599.68,583.98,4.42,0000 0000 0000 0000 000000
2017-06-21 15:18:00,0.01,0.10,0.00,24.77,28.70,31.18,13.55,42.01,1002.56,2028.00,3538.22,3052.97,3497.05,600.29,584.50,4.47,0000 0000 0000 0000 000000
2017-06-21 15:23:01,0.02,0.11,0.00,24.77,28.70,31.18,13.57,41.98,1002.70,2028.00,3537.72,3052.54,3496.94,599.99,584.31,4.52,0000 0000 0000 0000 000000
2017-06-21 15:28:02,0.02,0.11,0.00,24.77,28.70,31.17,13.57,41.93,1002.79,2028.00,3537.02,3052.03,3496.18,599.85,584.31,4.57,0000 0000 0000 0000 000000
2017-06-21 15:33:03,0.01,0.11,0.00,24.78,28.70,31.16,13.66,41.98,1002.92,2028.00,3536.36,3052.00,3496.00,600.34,584.75,4.62,0000 0000 0000 0000 000000
2017-06-21 15:38:05,0.01,0.11,0.00,24.79,28.70,31.16,13.53,41.97,1002.93,2028.00,3535.94,3051.96,3495.49,600.08,584.65,4.67,0000 0000 0000 0000 000000
2017-06-21 15:43:06,0.03,0.11,0.00,24.80,28.70,31.15,13.52,41.92,1002.92,2028.00,3535.13,3051.59,3495.03,599.94,584.39,4.73,0000 0000 0000 0000 000000
2017-06-21 15:48:07,0.02,0.11,0.00,24.81,28.70,31.13,13.62,41.77,1002.94,2028.00,3534.69,3051.08,3494.90,600.08,584.53,4.78,0000 0000 0000 0000 000000
2017-06-21 15:53:08,0.01,0.11,0.00,24.85,28.70,31.13,13.55,41.78,1002.96,2028.00,3534.00,3051.00,3494.17,599.98,584.44,4.83,0000 0000 0000 0000 000000
2017-06-21 15:58:09,0.01,0.11,0.00,24.87,28.70,31.13,13.63,41.74,1002.97,2028.00,3533.24,3050.96,3493.98,599.92,584.45,4.88,0000 0000 0000 0000 000000
2017-06-21 16:03:10,0.05,0.12,0.00,24.87,28.70,31.12,13.58,41.84,1002.99,2028.00,3532.43,3050.29,3493.17,600.04,584.39,4.93,0000 0000 0000 0000 000000
2017-06-21 16:08:12,0.00,0.12,0.00,24.88,28.70,31.11,13.61,41.69,1003.08,2028.00,3532.00,3050.02,3492.99,600.43,584.82,4.98,0000 0000 0000 0000 000000
2017-06-21 16:13:13,0.02,0.12,0.00,24.90,28.70,31.12,13.55,41.67,1003.03,2028.00,3531.34,3049.99,3492.64,599.92,584.14,5.03,0000 0000 0000 0000 000000
2017-06-21 16:18:14,0.01,0.12,0.00,24.92,28.70,31.11,13.51,41.74,1003.36,2028.00,3530.75,3049.87,3492.02,599.77,584.21,5.08,0000 0000 0000 0000 000000
2017-06-21 16:23:15,0.03,0.12,0.00,24.94,28.70,31.11,13.56,41.70,1003.43,2028.00,3530.00,3049.20,3491.86,599.67,584.23,5.13,0000 0000 0000 0000 000000
2017-06-21 16:28:16,0.03,0.12,0.00,24.98,28.70,31.11,13.50,41.67,1003.44,2028.02,3529.21,3049.02,3491.11,599.85,584.26,5.18,0000 0000 0000 0000 000000
2017-06-21 16:33:17,0.01,0.12,0.00,24.99,28.72,31.12,13.61,41.70,1003.44,2028.02,3528.72,3048.99,3490.93,599.85,584.25,5.23,0000 0000 0000 0000 000000
2017-06-21 16:38:19,0.03,0.12,0.00,25.01,28.72,31.13,13.54,41.81,1003.47,2028.00,3528.00,3048.64,3490.22,599.54,584.02,5.28,0000 0000 0000 0000 000000
2017-06-21 16:43:20,0.02,0.12,0.00,25.03,28.73,31.13,13.60,41.73,1003.62,2028.00,3527.26,3048.03,3489.97,600.20,584.40,5.33,0000 0000 0000 0000 000000
2017-06-21 16:48:21,0.01,0.13,0.00,25.04,28.75,31.15,13.59,41.84,1003.62,2028.00,3526.91,3048.00,3489.41,600.22,584.63,5.38,0000 0000 0000 0000 000000
2017-06-21 16:53:22,0.02,0.13,0.00,25.06,28.75,31.16,13.55,41.77,1003.82,2028.01,3526.10,3047.95,3489.01,599.84,584.30,5.43,0000 0000 0000 0000 000000
2017-06-21 16:58:23,0.04,0.13,0.00,25.08,28.77,31.17,13.55,41.84,1003.81,2028.00,3525.40,3047.27,3488.58,600.02,584.44,5.48,0000 0000 0000 0000 000000
2017-06-21 17:03:25,0.01,0.13,0.00,25.11,28.77,31.18,13.58,41.85,1003.90,2028.00,3524.86,3047.01,3488.02,600.17,584.55,5.53,0000 0000 0000 0000 000000
2017-06-21 17:08:26,0.02,0.13,0.00,25.13,28.79,31.20,13.52,41.83,1003.91,2028.00,3524.05,3046.93,3487.73,599.82,584.20,5.58,0000 0000 0000 0000 000000
2017-06-21 17:13:27,0.03,0.13,0.00,25.16,28.80,31.21,13.53,41.81,1003.91,2028.00,3523.50,3046.36,3487.04,599.77,584.03,5.63,0000 0000 0000 0000 000000
2017-06-21 17:18:29,0.01,0.13,0.00,25.17,28.82,31.22,13.54,41.79,1003.92,2028.00,3522.91,3046.01,3486.73,599.95,584.19,5.68,0000 0000 0000 0000 000000
2017-06-21 17:23:30,0.02,0.13,0.00,25.20,28.82,31.23,13.57,41.78,1003.92,2027.99,3522.11,3045.98,3486.07,600.22,584.59,5.73,0000 0000 0000 0000 000000
2017-06-21 17:28:32,0.02,0.14,0.00,25.20,28.85,31.24,13.61,41.83,1003.93,2027.96,3521.63,3045.40,3485.89,599.85,584.11,5.78,0000 0000 0000 0000 000000
2017-06-21 17:33:33,0.01,0.14,0.00,25.23,28.85,31.26,13.54,41.79,1003.93,2027.91,3520.98,3045.02,3485.12,599.83,584.02,5.83,0000 0000 0000 0000 000000
2017-06-21 17:38:34,-0.01,0.14,0.00,25.25,28.87,31.28,13.59,41.80,1003.95,2027.68,3520.23,3044.98,3484.95,600.02,584.18,5.88,0000 0000 0000 0000 000000
2017-06-21 17:43:35,0.00,0.14,0.00,25.28,28.89,31.30,13.52,41.65,1003.94,2027.33,3519.80,3044.47,3484.24,599.92,584.02,5.93,0000 0000 0000 0000 000000
2017-06-21 17:48:36,0.01,0.14,0.00,25.29,28.90,31.31,13.52,41.77,1003.94,2027.06,3519.02,3044.01,3483.78,599.88,583.90,5.98,0000 0000 0000 0000 000000
2017-06-21 17:53:38,0.02,0.14,0.00,25.30,28.92,31.32,13.56,41.64,1003.98,2027.06,3518.40,3043.94,3483.08,600.01,584.08,6.03,0000 0000 0000 0000 000000
2017-06-21 17:58:39,0.02,0.14,0.00,25.33,28.93,31.34,13.55,41.69,1004.23,2027.01,3517.98,3043.20,3482.97,599.86,583.98,6.08,0000 0000 0000 0000 000000
2017-06-21 18:03:41,0.03,0.14,0.00,25.35,28.95,31.36,13.53,41.69,1004.37,2027.00,3517.21,3043.01,3482.23,599.98,584.12,6.13,0000 0000 0000 0000 000000
2017-06-21 18:08:42,0.01,0.14,0.00,25.36,28.96,31.37,13.56,41.72,1004.41,2027.00,3516.69,3042.96,3481.96,600.16,584.44,6.18,0000 0000 0000 0000 000000
2017-06-21 18:13:43,0.03,0.14,0.00,25.37,28.98,31.39,13.64,41.64,1004.45,2027.00,3516.02,3042.40,3481.30,600.25,584.44,6.23,0000 0000 0000 0000 000000
2017-06-21 18:18:44,0.02,0.14,0.00,25.40,29.00,31.40,13.57,41.77,1004.72,2027.00,3515.38,3042.01,3480.98,600.11,584.43,6.28,0000 0000 0000 0000 000000
2017-06-21 18:23:46,0.01,0.14,0.00,25.42,29.01,31.42,13.55,41.69,1004.85,2026.98,3514.88,3041.94,3480.38,600.05,584.40,6.33,0000 0000 0000 0000 000000
2017-06-21 18:28:48,0.03,0.15,0.00,25.44,29.03,31.44,13.57,41.77,1004.90,2026.94,3514.06,3041.29,3479.98,600.19,584.51,6.38,0000 0000 0000 0000 000000
2017-06-21 18:33:48,0.02,0.15,0.00,25.45,29.05,31.46,13.64,41.85,1004.91,2026.87,3513.33,3041.00,3479.31,600.27,584.59,6.43,0000 0000 0000 0000 000000
2017-06-21 18:38:50,-0.02,0.15,0.00,25.47,29.06,31.47,13.50,41.77,1004.95,2026.60,3512.90,3040.91,3478.99,599.92,584.33,6.48,0000 0000 0000 0000 000000
2017-06-21 18:43:51,0.01,0.15,0.00,25.49,29.08,31.50,13.53,41.74,1005.24,2026.13,3512.14,3040.16,3478.34,599.86,584.37,6.53,0000 0000 0000 0000 000000
2017-06-21 18:48:52,0.01,0.15,0.00,25.50,29.10,31.51,13.54,41.82,1005.36,2026.01,3511.54,3040.00,3477.96,599.93,584.47,6.58,0000 0000 0000 0000 000000
2017-06-21 18:53:54,0.02,0.15,0.00,25.51,29.11,31.53,13.58,41.84,1005.39,2026.00,3511.01,3039.86,3477.21,600.08,584.56,6.63,0000 0000 0000 0000 000000
2017-06-21 18:58:55,0.03,0.15,0.00,25.52,29.12,31.55,13.56,41.84,1005.39,2026.00,3510.29,3039.15,3476.96,599.78,584.26,6.68,0000 0000 0000 0000 000000
2017-06-21 19:03:57,0.02,0.15,0.00,25.54,29.15,31.57,13.58,41.86,1005.40,2025.97,3509.61,3038.91,3476.19,599.70,584.16,6.73,0000 0000 0000 0000 000000
2017-06-21 19:08:58,0.03,0.15,0.00,25.56,29.16,31.58,13.64,41.78,1005.65,2025.94,3508.88,3038.12,3475.80,600.29,584.91,6.78,0000 0000 0000 0000 000000
2017-06-21 19:13:59,-0.00,0.15,0.00,25.57,29.17,31.60,13.53,41.84,1005.86,2025.81,3508.08,3037.98,3475.06,600.21,584.85,6.83,0000 0000 0000 0000 000000
2017-06-21 19:19:00,-0.00,0.15,0.00,25.58,29.19,31.61,13.58,41.87,1005.87,2025.36,3507.42,3037.58,3474.74,600.18,584.74,6.88,0000 0000 0000 0000 000000
2017-06-21 19:24:02,0.02,0.15,0.00,25.59,29.20,31.63,13.58,41.89,1005.88,2025.06,3506.51,3036.98,3473.75,600.21,584.83,6.93,0000 0000 0000 0000 000000
2017-06-21 19:29:03,0.04,0.16,0.00,25.61,29.22,31.64,13.64,41.94,1006.01,2025.01,3505.30,3036.17,3473.00,600.07,584.75,6.98,0000 0000 0000 0000 000000
2017-06-21 19:34:05,0.02,0.16,0.00,25.62,29.22,31.66,13.67,41.86,1006.30,2025.01,3504.59,3036.00,3472.23,600.09,584.92,7.04,0000 0000 0000 0000 000000
2017-06-21 19:39:06,0.02,0.16,0.00,25.62,29.25,31.67,13.60,41.77,1006.32,2025.00,3503.96,3035.55,3471.92,600.13,584.95,7.09,0000 0000 0000 0000 000000
2017-06-21 19:44:07,0.03,0.16,0.00,25.63,29.25,31.68,13.54,41.85,1006.34,2024.99,3503.15,3035.02,3471.15,599.88,584.69,7.14,0000 0000 0000 0000 000000
2017-06-21 19:49:08,0.05,0.16,0.00,25.65,29.27,31.71,13.56,41.80,1006.36,2024.98,3502.11,3034.48,3470.40,599.93,584.64,7.19,0000 0000 0000 0000 000000
2017-06-21 19:54:10,0.04,0.17,0.00,25.67,29.28,31.71,13.57,41.92,1006.37,2024.95,3500.68,3033.82,3469.37,599.99,584.80,7.24,0000 0000 0000 0000 000000
2017-06-21 19:59:10,0.05,0.17,0.00,25.67,29.30,31.73,13.60,41.92,1006.39,2024.89,3499.40,3033.01,3468.33,600.05,584.83,7.29,0000 0000 0000 0000 000000
2017-06-21 20:04:12,0.03,0.17,0.00,25.67,29.31,31.75,13.57,41.58,1006.47,2024.69,3498.12,3032.22,3467.41,600.03,584.83,7.34,0000 0000 0000 0000 000000
2017-06-21 20:09:13,-0.01,0.17,0.00,25.69,29.32,31.76,13.62,41.81,1006.76,2024.23,3497.05,3031.86,3466.62,599.91,585.07,7.39,0000 0000 0000 0000 000000
2017-06-21 20:14:14,0.04,0.17,0.00,25.70,29.33,31.77,13.52,41.91,1006.85,2024.10,3496.16,3031.09,3466.01,599.71,584.66,7.44,0000 0000 0000 0000 000000
2017-06-21 20:19:15,0.01,0.17,0.00,25.71,29.35,31.78,13.56,41.87,1006.88,2024.07,3495.81,3030.99,3465.47,599.89,584.75,7.49,0000 0000 0000 0000 000000
2017-06-21 20:24:16,0.02,0.17,0.00,25.71,29.35,31.79,13.55,41.80,1007.16,2024.01,3495.53,3030.65,3465.05,599.91,585.08,7.54,0000 0000 0000 0000 000000
2017-06-21 20:29:18,0.02,0.17,0.00,25.72,29.37,31.80,13.62,41.73,1007.34,2024.00,3494.86,3030.06,3464.84,599.76,584.97,7.59,0000 0000 0000 0000 000000
2017-06-21 20:34:19,0.02,0.18,0.00,25.74,29.38,31.82,13.54,41.75,1007.34,2024.00,3494.10,3029.99,3464.07,599.80,584.92,7.64,0000 0000 0000 0000 000000
2017-06-21 20:39:20,0.01,0.18,0.00,25.73,29.40,31.83,13.56,41.73,1007.35,2023.97,3493.87,3029.57,3463.89,600.11,585.31,7.69,0000 0000 0000 0000 000000
2017-06-21 20:44:21,0.02,0.18,0.00,25.74,29.40,31.84,13.62,41.98,1007.40,2023.85,3493.09,3029.02,3463.15,600.16,585.33,7.74,0000 0000 0000 0000 000000
2017-06-21 20:49:22,-0.01,0.18,0.00,25.75,29.41,31.85,13.61,41.97,1007.51,2023.65,3492.82,3028.99,3462.99,600.32,585.55,7.79,0000 0000 0000 0000 000000